M I D A S
Marine Information and Data Acquisition System
Tripno 1636 of the Zeeleeuw from 2009-01-29 07:42:15 to 2009-01-29 15:35:18
Back to CruiseResearch ActivitiesStationsMapUnderway DataData graphs

EquipmentUnitsComment
TimeDGPSUTC
LatitudeDGPSDM.mWGS84
LongitudeDGPSDM.mWGS84
TemperatureSBE03/SBE38deg celciusITS90
ConductivitySBE21S/mITS90
SalinitySBE21 Practical Salinity Units
ChlorophylAChelsea fluorimeterg/lCalibrated in Aceton
Missing or incorrect values are displayed as -999
Sea surface data collected by the RV Zeeleeuw from 2009-01-29 07:47:35 to 2009-01-29 15:43:16
Time Latitude Longitude Temperature Conductivity Salinity ChlorophylA
2009-01-29 07:48:40 51°13.678 2°55.906 -999 0.089033 0.511094 -0.93092
2009-01-29 07:49:40 51°13.697 2°55.816 -999 0.089033 0.511103 -0.93092
2009-01-29 07:50:40 51°13.707 2°55.758 -999 0.089033 0.511199 -0.93092
2009-01-29 07:51:40 51°13.705 2°55.758 -999 0.089033 0.511065 -0.93092
2009-01-29 07:52:40 51°13.738 2°55.725 -999 0.089033 0.511151 -0.93092
2009-01-29 07:53:40 51°13.845 2°55.629 -999 0.089033 0.51118 -0.896096
2009-01-29 07:54:40 51°13.976 2°55.53 -999 0.089033 0.511219 -0.93092
2009-01-29 07:55:40 51°14.109 2°55.426 -999 0.089033 0.511228 -0.93092
2009-01-29 07:56:40 51°14.232 2°55.298 -999 0.089033 0.511247 -0.93092
2009-01-29 07:57:40 51°14.338 2°55.126 -999 0.089033 0.511267 -0.93092
2009-01-29 07:58:40 51°14.44 2°54.931 -999 0.089033 0.511286 -0.93092
2009-01-29 07:59:40 51°14.574 2°54.777 -999 0.089033 0.511324 -0.93092
2009-01-29 08:00:40 51°14.716 2°54.617 -999 0.089033 0.511344 -0.93092
2009-01-29 08:01:40 51°14.871 2°54.443 -999 0.089033 0.511363 -0.93092
2009-01-29 08:02:40 51°15.025 2°54.259 -999 0.089033 0.511401 -0.93092
2009-01-29 08:03:40 51°15.183 2°54.075 -999 0.089033 0.511411 -0.93092
2009-01-29 08:04:40 51°15.354 2°53.915 -999 0.089033 0.511449 -0.93092
2009-01-29 08:05:40 51°15.527 2°53.75 -999 0.089033 0.511478 -0.93092
2009-01-29 08:06:40 51°15.703 2°53.597 -999 0.089033 0.511517 -0.93092
2009-01-29 08:07:40 51°15.877 2°53.433 -999 0.089033 0.511546 -0.93092
2009-01-29 08:08:40 51°16.051 2°53.273 -999 0.08893 0.51095 -0.896096
2009-01-29 08:09:40 51°16.229 2°53.128 -999 0.08893 0.510998 -0.93092
2009-01-29 08:10:40 51°16.408 2°52.984 -999 0.08893 0.511018 -0.93092
2009-01-29 08:11:40 51°16.586 2°52.846 -999 0.08893 0.511066 -0.93092
2009-01-29 08:12:40 51°16.765 2°52.715 -999 0.08893 0.511095 -0.93092
2009-01-29 08:13:40 51°16.942 2°52.587 -999 0.08893 0.511133 -0.93092
2009-01-29 08:14:40 51°17.119 2°52.458 -999 0.08893 0.511172 -0.93092
2009-01-29 08:15:40 51°17.289 2°52.304 -999 0.08893 0.5112 -0.93092
2009-01-29 08:16:40 51°17.438 2°52.09 -999 0.08893 0.511239 -0.93092
2009-01-29 08:17:40 51°17.582 2°51.864 -999 0.08893 0.511268 -0.93092
2009-01-29 08:18:40 51°17.721 2°51.636 -999 0.08893 0.511306 -0.93092
2009-01-29 08:19:40 51°17.864 2°51.411 -999 0.08893 0.511335 -0.93092
2009-01-29 08:20:40 51°18.008 2°51.182 -999 0.08893 0.511364 -0.896096
2009-01-29 08:21:40 51°18.154 2°50.953 -999 0.08893 0.511412 -0.896096
2009-01-29 08:22:40 51°18.303 2°50.729 -999 0.08893 0.511441 -0.896096
2009-01-29 08:23:40 51°18.453 2°50.503 -999 0.088827 0.510865 -0.896096
2009-01-29 08:24:40 51°18.6 2°50.272 -999 0.088827 0.510894 -0.896096
2009-01-29 08:25:40 51°18.75 2°50.046 -999 0.088827 0.510932 -0.896096
2009-01-29 08:26:40 51°18.899 2°49.817 -999 0.088827 0.510971 -0.896096
2009-01-29 08:27:40 51°19.046 2°49.585 -999 0.088827 0.510999 -0.93092
2009-01-29 08:28:40 51°19.2 2°49.359 -999 0.088827 0.511048 -0.896096
2009-01-29 08:29:40 51°19.356 2°49.136 -999 0.088827 0.511076 -0.93092
2009-01-29 08:30:40 51°19.516 2°48.92 -999 0.088827 0.511115 -0.896096
2009-01-29 08:31:40 51°19.674 2°48.7 -999 0.088827 0.511154 -0.896096
2009-01-29 08:32:40 51°19.828 2°48.473 -999 0.088827 0.511202 -0.896096
2009-01-29 08:33:40 51°19.978 2°48.242 -999 0.088827 0.511221 -0.896096
2009-01-29 08:34:40 51°20.132 2°48.019 -999 0.088827 0.511269 -0.896096
2009-01-29 08:35:40 51°20.292 2°47.806 -999 0.088724 0.510683 -0.93092
2009-01-29 08:36:40 51°20.455 2°47.589 -999 0.088724 0.510721 -0.896096
2009-01-29 08:37:40 51°20.614 2°47.363 -999 0.088724 0.51076 -0.896096
2009-01-29 08:38:40 51°20.772 2°47.128 -999 0.088724 0.510798 -0.896096
2009-01-29 08:39:40 51°20.95 2°46.956 -999 0.088724 0.510827 -0.896096
2009-01-29 08:40:40 51°21.148 2°46.886 -999 0.088724 0.510875 -0.896096
2009-01-29 08:41:40 51°21.347 2°46.824 -999 0.088724 0.510914 -0.896096
2009-01-29 08:42:40 51°21.545 2°46.785 -999 0.088724 0.510952 -0.896096
2009-01-29 08:43:40 51°21.743 2°46.743 -999 0.088724 0.51101 -0.896096
2009-01-29 08:44:40 51°21.919 2°46.57 -999 0.088724 0.51076 -0.896096
2009-01-29 08:45:40 51°22.061 2°46.311 -999 0.088724 0.511039 -0.896096
2009-01-29 08:46:40 51°22.199 2°46.05 -999 0.088724 0.511001 -0.896096
2009-01-29 08:47:40 51°22.341 2°45.796 -999 0.088724 0.511068 -0.896096
2009-01-29 08:48:40 51°22.483 2°45.549 -999 0.088724 0.511116 -0.896096
2009-01-29 08:49:40 51°22.62 2°45.292 -999 0.088621 0.510529 -0.896096
2009-01-29 08:50:40 51°22.757 2°45.033 -999 0.088621 0.510587 -0.896096
2009-01-29 08:51:40 51°22.899 2°44.781 -999 0.088621 0.510635 -0.896096
2009-01-29 08:52:40 51°23.042 2°44.53 -999 0.088621 0.510674 -0.896096
2009-01-29 08:53:40 51°23.185 2°44.283 -999 0.088621 0.510722 -0.896096
2009-01-29 08:54:40 51°23.327 2°44.035 -999 0.088621 0.51077 -0.896096
2009-01-29 08:55:40 51°23.465 2°43.779 -999 0.088621 0.510809 -0.896096
2009-01-29 08:56:40 51°23.601 2°43.52 -999 0.088621 0.510857 -0.896096
2009-01-29 08:57:40 51°23.739 2°43.266 -999 0.088621 0.510896 -0.896096
2009-01-29 08:58:40 51°23.881 2°43.017 -999 0.088621 0.510934 -0.896096
2009-01-29 08:59:40 51°24.022 2°42.771 -999 0.088621 0.510983 -0.896096
2009-01-29 09:00:40 51°24.164 2°42.524 -999 0.088518 0.510414 -0.896096
2009-01-29 09:01:40 51°24.303 2°42.273 -999 0.088518 0.510453 -0.896096
2009-01-29 09:02:40 51°24.444 2°42.028 -999 0.088518 0.510511 -0.896096
2009-01-29 09:03:40 51°24.58 2°41.777 -999 0.088518 0.51055 -0.896096
2009-01-29 09:04:40 51°24.717 2°41.529 -999 0.088518 0.510588 -0.896096
2009-01-29 09:05:40 51°24.847 2°41.27 -999 0.088518 0.510636 -0.896096
2009-01-29 09:06:40 51°24.974 2°41.007 -999 0.088518 0.510675 -0.896096
2009-01-29 09:07:40 51°25.101 2°40.741 -999 0.088518 0.510733 -0.896096
2009-01-29 09:08:40 51°25.226 2°40.474 -999 0.088518 0.510781 -0.896096
2009-01-29 09:09:40 51°25.351 2°40.208 -999 0.088518 0.51082 -0.896096
2009-01-29 09:10:40 51°25.482 2°39.951 -999 0.088518 0.510859 -0.896096
2009-01-29 09:11:40 51°25.627 2°39.716 -999 0.088518 0.510907 -0.896096
2009-01-29 09:12:40 51°25.776 2°39.493 -999 0.088415 0.510328 -0.896096
2009-01-29 09:13:40 51°25.932 2°39.282 -999 0.088415 0.510377 -0.896096
2009-01-29 09:14:40 51°26.088 2°39.075 -999 0.088415 0.510425 -0.896096
2009-01-29 09:15:40 51°26.246 2°38.869 -999 0.088415 0.510454 -0.896096
2009-01-29 09:16:40 51°26.398 2°38.653 -999 0.088415 0.510502 -0.896096
2009-01-29 09:17:40 51°26.551 2°38.44 -999 0.088415 0.510551 -0.896096
2009-01-29 09:18:40 51°26.7 2°38.22 -999 0.088415 0.510589 -0.896096
2009-01-29 09:19:40 51°26.847 2°37.998 -999 0.088415 0.510638 -0.896096
2009-01-29 09:20:40 51°26.998 2°37.783 -999 0.088415 0.510676 -0.896096
2009-01-29 09:21:40 51°27.145 2°37.561 -999 0.088415 0.510715 -0.896096
2009-01-29 09:22:40 51°27.293 2°37.343 -999 0.088415 0.510764 -0.896096
2009-01-29 09:23:40 51°27.436 2°37.113 -999 0.088312 0.510204 -0.896096
2009-01-29 09:24:40 51°27.585 2°36.895 -999 0.088312 0.510242 -0.896096
2009-01-29 09:25:40 51°27.739 2°36.683 -999 0.088312 0.510291 -0.896096
2009-01-29 09:26:40 51°27.888 2°36.46 -999 0.088312 0.510349 -0.896096
2009-01-29 09:27:40 51°28.039 2°36.236 -999 0.088312 0.510397 -0.896096
2009-01-29 09:28:40 51°28.194 2°36.026 -999 0.088312 0.510446 -0.896096
2009-01-29 09:29:40 51°28.354 2°35.825 -999 0.088312 0.510484 -0.896096
2009-01-29 09:30:40 51°28.536 2°35.76 -999 0.088312 0.510552 -0.896096
2009-01-29 09:31:40 51°28.722 2°35.762 -999 0.088312 0.510601 -0.896096
2009-01-29 09:32:40 51°28.902 2°35.796 -999 0.088312 0.510649 -0.896096
2009-01-29 09:33:40 51°29.074 2°35.886 -999 0.088312 0.510698 -0.896096
2009-01-29 09:34:40 51°29.249 2°35.961 -999 0.088209 0.510137 -0.896096
2009-01-29 09:35:40 51°29.43 2°36.008 -999 0.088209 0.510166 -0.896096
2009-01-29 09:36:40 51°29.611 2°36.051 -999 0.088209 0.510205 -0.896096
2009-01-29 09:37:40 51°29.793 2°36.095 -999 0.088209 0.510253 -0.896096
2009-01-29 09:38:40 51°29.975 2°36.132 -999 0.088209 0.510302 -0.896096
2009-01-29 09:39:40 51°30.155 2°36.185 -999 0.088209 0.51035 -0.896096
2009-01-29 09:40:40 51°30.332 2°36.256 -999 0.088209 0.510389 -0.896096
2009-01-29 09:41:40 51°30.502 2°36.356 -999 0.088209 0.510428 -0.896096
2009-01-29 09:42:40 51°30.669 2°36.472 -999 0.088209 0.510467 -0.896096
2009-01-29 09:43:40 51°30.833 2°36.593 -999 0.088209 0.510505 -0.896096
2009-01-29 09:44:40 51°31 2°36.713 -999 0.088209 0.510544 -0.896096
2009-01-29 09:45:40 51°31.169 2°36.822 -999 0.088209 0.510583 -0.896096
2009-01-29 09:46:40 51°31.344 2°36.91 -999 0.088209 0.510632 -0.896096
2009-01-29 09:47:40 51°31.52 2°36.992 -999 0.088107 0.510051 -0.896096
2009-01-29 09:48:40 51°31.695 2°37.078 -999 0.088107 0.51008 -0.896096
2009-01-29 09:49:40 51°31.869 2°37.168 -999 0.088107 0.510109 -0.896096
2009-01-29 09:50:40 51°32.004 2°37.238 -999 0.088107 0.510158 -0.896096
2009-01-29 09:51:40 51°32.113 2°37.29 -999 0.088107 0.510197 -0.896096
2009-01-29 09:52:40 51°32.279 2°37.373 -999 0.088107 0.510226 -0.896096
2009-01-29 09:53:40 51°32.453 2°37.464 -999 0.088107 0.510265 -0.896096
2009-01-29 09:54:40 51°32.625 2°37.555 -999 0.088107 0.510313 -0.896096
2009-01-29 09:55:40 51°32.801 2°37.638 -999 0.088107 0.510352 -0.896096
2009-01-29 09:56:40 51°32.972 2°37.734 -999 0.088107 0.510391 -0.896096
2009-01-29 09:57:40 51°33.146 2°37.825 -999 0.088107 0.51042 -0.93092
2009-01-29 09:58:40 51°33.318 2°37.92 -999 0.088107 0.510459 -0.896096
2009-01-29 09:59:40 51°33.492 2°38.008 -999 0.088107 0.510498 -0.896096
2009-01-29 10:00:40 51°33.668 2°38.097 -999 0.088107 0.510536 -0.93092
2009-01-29 10:01:40 51°33.843 2°38.181 -999 0.088004 0.509956 -0.896096
2009-01-29 10:02:40 51°34.016 2°38.276 -999 0.088004 0.509994 -0.896096
2009-01-29 10:03:40 51°34.189 2°38.366 -999 0.088004 0.510043 -0.896096
2009-01-29 10:04:40 51°34.362 2°38.455 -999 0.088004 0.510072 -0.896096
2009-01-29 10:05:40 51°34.536 2°38.546 -999 0.088004 0.510101 -0.93092
2009-01-29 10:06:40 51°34.71 2°38.635 -999 0.088004 0.51014 -0.896096
2009-01-29 10:07:40 51°34.883 2°38.73 -999 0.088004 0.510198 -0.896096
2009-01-29 10:08:40 51°35.057 2°38.819 -999 0.088004 0.510218 -0.896096
2009-01-29 10:09:40 51°35.232 2°38.906 -999 0.088004 0.510257 -0.896096
2009-01-29 10:10:40 51°35.407 2°38.999 -999 0.088004 0.510295 -0.896096
2009-01-29 10:11:40 51°35.581 2°39.092 -999 0.088004 0.510325 -0.93092
2009-01-29 10:12:40 51°35.754 2°39.191 -999 0.088004 0.510373 -0.896096
2009-01-29 10:13:40 51°35.929 2°39.282 -999 0.088004 0.510402 -0.93092
2009-01-29 10:14:40 51°36.104 2°39.377 -999 0.088004 0.510451 -0.896096
2009-01-29 10:15:40 51°36.28 2°39.467 -999 0.088004 0.51049 -0.896096
2009-01-29 10:16:40 51°36.454 2°39.564 -999 0.087901 0.509899 -0.93092
2009-01-29 10:17:40 51°36.627 2°39.661 -999 0.087901 0.509947 -0.93092
2009-01-29 10:18:40 51°36.801 2°39.757 -999 0.087901 0.509976 -0.93092
2009-01-29 10:19:40 51°36.977 2°39.847 -999 0.087901 0.510025 -0.896096
2009-01-29 10:20:40 51°37.152 2°39.941 -999 0.087901 0.510064 -0.93092
2009-01-29 10:21:40 51°37.327 2°40.031 -999 0.087901 0.510093 -0.896096
2009-01-29 10:22:40 51°37.5 2°40.12 -999 0.087901 0.510132 -0.896096
2009-01-29 10:23:40 51°37.675 2°40.204 -999 0.087901 0.510161 -0.93092
2009-01-29 10:24:40 51°37.849 2°40.293 -999 0.087901 0.5102 -0.93092
2009-01-29 10:25:40 51°38.024 2°40.375 -999 0.087901 0.510239 -0.896096
2009-01-29 10:26:40 51°38.196 2°40.466 -999 0.087901 0.510278 -0.896096
2009-01-29 10:27:40 51°38.367 2°40.563 -999 0.087901 0.510297 -0.93092
2009-01-29 10:28:40 51°38.539 2°40.653 -999 0.087901 0.510327 -0.896096
2009-01-29 10:29:40 51°38.708 2°40.741 -999 0.087901 0.510366 -0.896096
2009-01-29 10:30:40 51°38.88 2°40.828 -999 0.087901 0.510414 -0.93092
2009-01-29 10:31:40 51°39.053 2°40.909 -999 0.087798 0.509813 -0.896096
2009-01-29 10:32:40 51°39.225 2°40.993 -999 0.087798 0.509852 -0.93092
2009-01-29 10:33:40 51°39.398 2°41.074 -999 0.087798 0.509881 -0.93092
2009-01-29 10:34:40 51°39.571 2°41.151 -999 0.087798 0.50992 -0.93092
2009-01-29 10:35:40 51°39.741 2°41.233 -999 0.087798 0.509949 -0.93092
2009-01-29 10:36:40 51°39.91 2°41.324 -999 0.087798 0.509978 -0.93092
2009-01-29 10:37:40 51°40.081 2°41.417 -999 0.087798 0.510017 -0.896096
2009-01-29 10:38:40 51°40.255 2°41.502 -999 0.087798 0.510056 -0.896096
2009-01-29 10:39:40 51°40.428 2°41.589 -999 0.087798 0.510085 -0.93092
2009-01-29 10:40:40 51°40.601 2°41.671 -999 0.087798 0.510115 -0.93092
2009-01-29 10:41:40 51°40.772 2°41.758 -999 0.087798 0.510153 -0.93092
2009-01-29 10:42:40 51°40.943 2°41.845 -999 0.087798 0.510183 -0.896096
2009-01-29 10:43:40 51°41.115 2°41.934 -999 0.087798 0.510212 -0.896096
2009-01-29 10:44:40 51°41.288 2°42.016 -999 0.087798 0.510251 -0.93092
2009-01-29 10:45:40 51°41.457 2°42.101 -999 0.087798 0.51028 -0.93092
2009-01-29 10:46:40 51°41.628 2°42.188 -999 0.087798 0.510319 -0.896096
2009-01-29 10:47:40 51°41.798 2°42.281 -999 0.087798 0.510329 -0.93092
2009-01-29 10:48:40 51°41.969 2°42.375 -999 0.087798 0.510387 -0.896096
2009-01-29 10:49:40 51°42.142 2°42.47 -999 0.087695 0.509775 -0.93092
2009-01-29 10:50:40 51°42.313 2°42.561 -999 0.087695 0.509805 -0.93092
2009-01-29 10:51:40 51°42.485 2°42.651 -999 0.087695 0.509834 -0.896096
2009-01-29 10:52:40 51°42.656 2°42.74 -999 0.087695 0.509873 -0.93092
2009-01-29 10:53:40 51°42.825 2°42.833 -999 0.087695 0.509912 -0.93092
2009-01-29 10:54:40 51°42.997 2°42.919 -999 0.087695 0.509941 -0.93092
2009-01-29 10:55:40 51°43.166 2°43.024 -999 0.087695 0.50997 -0.93092
2009-01-29 10:56:40 51°43.33 2°43.139 -999 0.087695 0.51 -0.896096
2009-01-29 10:57:40 51°43.493 2°43.258 -999 0.087695 0.510039 -0.93092
2009-01-29 10:58:40 51°43.655 2°43.387 -999 0.087695 0.510058 -0.93092
2009-01-29 10:59:40 51°43.79 2°43.577 -999 0.087695 0.510097 -0.93092
2009-01-29 11:00:40 51°43.837 2°43.854 -999 0.087695 0.510117 -0.896096
2009-01-29 11:01:40 51°43.767 2°44.137 -999 0.087695 0.510156 -0.896096
2009-01-29 11:02:40 51°43.636 2°44.387 -999 0.087695 0.510195 -0.93092
2009-01-29 11:03:40 51°43.506 2°44.639 -999 0.087695 0.510224 -0.93092
2009-01-29 11:04:40 51°43.375 2°44.889 -999 0.087695 0.510253 -0.93092
2009-01-29 11:05:40 51°43.236 2°45.133 -999 0.087695 0.510283 -0.93092
2009-01-29 11:06:40 51°43.104 2°45.384 -999 0.087695 0.510302 -0.93092
2009-01-29 11:07:40 51°42.968 2°45.631 -999 0.087695 0.510351 -0.896096
2009-01-29 11:08:40 51°42.835 2°45.879 -999 0.087695 0.51039 -0.93092
2009-01-29 11:09:40 51°42.679 2°46.088 -999 0.087592 0.509797 -0.93092
2009-01-29 11:10:40 51°42.467 2°46.06 -999 0.087592 0.509855 -0.93092
2009-01-29 11:11:40 51°42.254 2°45.938 -999 0.087592 0.509885 -0.896096
2009-01-29 11:12:40 51°42.043 2°45.806 -999 0.087592 0.509914 -0.93092
2009-01-29 11:13:40 51°41.829 2°45.678 -999 0.087592 0.509963 -0.93092
2009-01-29 11:14:40 51°41.616 2°45.551 -999 0.087592 0.509982 -0.93092
2009-01-29 11:15:40 51°41.404 2°45.425 -999 0.087592 0.510031 -0.896096
2009-01-29 11:16:40 51°41.193 2°45.285 -999 0.087592 0.51007 -0.896096
2009-01-29 11:17:40 51°40.982 2°45.148 -999 0.087592 0.510119 -0.896096
2009-01-29 11:18:40 51°40.771 2°45.013 -999 0.087592 0.510158 -0.93092
2009-01-29 11:19:40 51°40.561 2°44.874 -999 0.087592 0.510197 -0.896096
2009-01-29 11:20:40 51°40.35 2°44.74 -999 0.087592 0.510246 -0.896096
2009-01-29 11:21:40 51°40.138 2°44.601 -999 0.087592 0.510285 -0.896096
2009-01-29 11:22:40 51°39.924 2°44.472 -999 0.087592 0.510324 -0.896096
2009-01-29 11:23:40 51°39.713 2°44.336 -999 0.087592 0.510373 -0.93092
2009-01-29 11:24:40 51°39.503 2°44.194 -999 0.087592 0.510412 -0.896096
2009-01-29 11:25:40 51°39.292 2°44.063 -999 0.087489 0.509848 -0.93092
2009-01-29 11:26:40 51°39.08 2°43.931 -999 0.087489 0.509887 -0.896096
2009-01-29 11:27:40 51°38.872 2°43.786 -999 0.087489 0.509926 -0.896096
2009-01-29 11:28:40 51°38.661 2°43.648 -999 0.087489 0.509965 -0.896096
2009-01-29 11:29:40 51°38.448 2°43.517 -999 0.087489 0.510024 -0.896096
2009-01-29 11:30:40 51°38.235 2°43.387 -999 0.087489 0.510063 -0.896096
2009-01-29 11:31:40 51°38.025 2°43.245 -999 0.087489 0.510102 -0.896096
2009-01-29 11:32:40 51°37.813 2°43.115 -999 0.087489 0.510151 -0.93092
2009-01-29 11:33:40 51°37.602 2°42.981 -999 0.087489 0.5102 -0.93092
2009-01-29 11:34:40 51°37.392 2°42.839 -999 0.087489 0.510249 -0.93092
2009-01-29 11:35:40 51°37.182 2°42.699 -999 0.087489 0.510298 -0.93092
2009-01-29 11:36:40 51°36.971 2°42.56 -999 0.087489 0.510347 -0.93092
2009-01-29 11:37:40 51°36.762 2°42.425 -999 0.087386 0.509772 -0.93092
2009-01-29 11:38:40 51°36.553 2°42.287 -999 0.087386 0.509821 -0.896096
2009-01-29 11:39:40 51°36.345 2°42.15 -999 0.087386 0.50987 -0.896096
2009-01-29 11:40:40 51°36.135 2°42.02 -999 0.087386 0.509909 -0.93092
2009-01-29 11:41:40 51°35.926 2°41.885 -999 0.087386 0.509978 -0.93092
2009-01-29 11:42:40 51°35.717 2°41.754 -999 0.087386 0.510027 -0.896096
2009-01-29 11:43:40 51°35.509 2°41.615 -999 0.087386 0.510076 -0.93092
2009-01-29 11:44:40 51°35.3 2°41.477 -999 0.087386 0.510135 -0.93092
2009-01-29 11:45:40 51°35.09 2°41.341 -999 0.087386 0.510193 -0.896096
2009-01-29 11:46:40 51°34.879 2°41.208 -999 0.087386 0.510242 -0.896096
2009-01-29 11:47:40 51°34.668 2°41.076 -999 0.087386 0.510301 -0.896096
2009-01-29 11:48:40 51°34.456 2°40.954 -999 0.087283 0.509726 -0.93092
2009-01-29 11:49:40 51°34.246 2°40.816 -999 0.087283 0.509784 -0.896096
2009-01-29 11:50:40 51°34.035 2°40.679 -999 0.087283 0.509824 -0.896096
2009-01-29 11:51:40 51°33.825 2°40.547 -999 0.087283 0.509883 -0.896096
2009-01-29 11:52:40 51°33.615 2°40.406 -999 0.087283 0.509941 -0.93092
2009-01-29 11:53:40 51°33.405 2°40.267 -999 0.087283 0.50999 -0.93092
2009-01-29 11:54:40 51°33.193 2°40.139 -999 0.087283 0.51004 -0.896096
2009-01-29 11:55:40 51°32.98 2°40.013 -999 0.087283 0.510098 -0.93092
2009-01-29 11:56:40 51°32.766 2°39.894 -999 0.087283 0.510138 -0.896096
2009-01-29 11:57:40 51°32.554 2°39.771 -999 0.087283 0.510197 -0.896096
2009-01-29 11:58:40 51°32.344 2°39.649 -999 0.08718 0.50962 -0.896096
2009-01-29 11:59:40 51°32.132 2°39.56 -999 0.08718 0.509699 -0.93092
2009-01-29 12:00:40 51°31.97 2°39.734 -999 0.08718 0.509758 -0.93092
2009-01-29 12:01:40 51°31.951 2°40.04 -999 0.08718 0.509758 -0.896096
2009-01-29 12:02:40 51°31.96 2°40.353 -999 0.08718 0.509797 -0.896096
2009-01-29 12:03:40 51°31.988 2°40.664 -999 0.08718 0.509886 -0.896096
2009-01-29 12:04:40 51°32.019 2°40.978 -999 0.08718 0.509925 -0.896096
2009-01-29 12:05:40 51°32.05 2°41.292 -999 0.08718 0.509974 -0.896096
2009-01-29 12:06:40 51°32.082 2°41.603 -999 0.08718 0.510013 -0.896096
2009-01-29 12:07:40 51°32.171 2°41.873 -999 0.08718 0.510062 -0.896096
2009-01-29 12:08:40 51°32.335 2°42.034 -999 0.08718 0.510112 -0.896096
2009-01-29 12:09:40 51°32.51 2°42.168 -999 0.08718 0.510131 -0.896096
2009-01-29 12:10:40 51°32.682 2°42.307 -999 0.087078 0.509555 -0.896096
2009-01-29 12:11:40 51°32.854 2°42.449 -999 0.087078 0.509594 -0.896096
2009-01-29 12:12:40 51°33.028 2°42.587 -999 0.087078 0.509653 -0.896096
2009-01-29 12:13:40 51°33.208 2°42.706 -999 0.087078 0.509672 -0.896096
2009-01-29 12:14:40 51°33.39 2°42.821 -999 0.087078 0.509722 -0.896096
2009-01-29 12:15:40 51°33.573 2°42.932 -999 0.087078 0.509761 -0.896096
2009-01-29 12:16:40 51°33.756 2°43.043 -999 0.087078 0.50979 -0.896096
2009-01-29 12:17:40 51°33.938 2°43.157 -999 0.087078 0.50983 -0.93092
2009-01-29 12:18:40 51°34.12 2°43.273 -999 0.087078 0.509879 -0.896096
2009-01-29 12:19:40 51°34.303 2°43.392 -999 0.087078 0.509908 -0.896096
2009-01-29 12:20:40 51°34.486 2°43.506 -999 0.087078 0.509938 -0.896096
2009-01-29 12:21:40 51°34.672 2°43.619 -999 0.087078 0.509987 -0.896096
2009-01-29 12:22:40 51°34.856 2°43.74 -999 0.087078 0.510027 -0.93092
2009-01-29 12:23:40 51°35.04 2°43.863 -999 0.087078 0.510066 -0.896096
2009-01-29 12:24:41 51°35.227 2°43.984 -999 0.087078 0.510105 -0.896096
2009-01-29 12:25:40 51°35.41 2°44.107 -999 0.087078 0.510145 -0.896096
2009-01-29 12:26:41 51°35.599 2°44.225 -999 0.087078 0.510194 -0.93092
2009-01-29 12:27:40 51°35.781 2°44.341 -999 0.086975 0.509597 -0.896096
2009-01-29 12:28:40 51°35.968 2°44.456 -999 0.086975 0.509636 -0.896096
2009-01-29 12:29:40 51°36.154 2°44.572 -999 0.086975 0.509676 -0.896096
2009-01-29 12:30:40 51°36.34 2°44.691 -999 0.086975 0.509725 -0.896096
2009-01-29 12:31:40 51°36.524 2°44.814 -999 0.086975 0.509754 -0.896096
2009-01-29 12:32:40 51°36.71 2°44.927 -999 0.086975 0.509794 -0.896096
2009-01-29 12:33:40 51°36.895 2°45.051 -999 0.086975 0.509833 -0.93092
2009-01-29 12:34:40 51°37.082 2°45.165 -999 0.086975 0.509863 -0.896096
2009-01-29 12:35:40 51°37.268 2°45.283 -999 0.086975 0.509902 -0.93092
2009-01-29 12:36:40 51°37.453 2°45.405 -999 0.086975 0.509932 -0.93092
2009-01-29 12:37:40 51°37.638 2°45.526 -999 0.086975 0.509971 -0.896096
2009-01-29 12:38:40 51°37.826 2°45.642 -999 0.086975 0.510001 -0.93092
2009-01-29 12:39:40 51°38.014 2°45.765 -999 0.086975 0.51004 -0.896096
2009-01-29 12:40:40 51°38.2 2°45.886 -999 0.086975 0.51007 -0.896096
2009-01-29 12:41:40 51°38.387 2°46.006 -999 0.086975 0.510109 -0.93092
2009-01-29 12:42:41 51°38.576 2°46.129 -999 0.086975 0.510139 -0.93092
2009-01-29 12:43:40 51°38.76 2°46.251 -999 0.086975 0.510159 -0.896096
2009-01-29 12:44:40 51°38.947 2°46.372 -999 0.086975 0.510198 -0.896096
2009-01-29 12:45:40 51°39.137 2°46.487 -999 0.086975 0.510228 -0.896096
2009-01-29 12:46:40 51°39.324 2°46.609 -999 0.086975 0.510267 -0.93092
2009-01-29 12:47:40 51°39.513 2°46.732 -999 0.086872 0.509669 -0.896096
2009-01-29 12:48:40 51°39.703 2°46.856 -999 0.086872 0.509699 -0.93092
2009-01-29 12:49:40 51°39.893 2°46.979 -999 0.086872 0.509728 -0.896096
2009-01-29 12:50:40 51°40.084 2°47.099 -999 0.086872 0.509758 -0.93092
2009-01-29 12:51:40 51°40.276 2°47.218 -999 0.086872 0.509797 -0.896096
2009-01-29 12:52:40 51°40.467 2°47.34 -999 0.086872 0.509837 -0.93092
2009-01-29 12:53:40 51°40.66 2°47.452 -999 0.086872 0.509857 -0.896096
2009-01-29 12:54:40 51°40.852 2°47.573 -999 0.086872 0.509886 -0.93092
2009-01-29 12:55:40 51°41.043 2°47.695 -999 0.086872 0.509926 -0.93092
2009-01-29 12:56:40 51°41.236 2°47.815 -999 0.086872 0.509955 -0.896096
2009-01-29 12:57:40 51°41.427 2°47.942 -999 0.086872 0.509985 -0.896096
2009-01-29 12:58:41 51°41.623 2°48.061 -999 0.086872 0.510015 -0.896096
2009-01-29 12:59:40 51°41.809 2°48.187 -999 0.086872 0.510044 -0.93092
2009-01-29 13:00:41 51°41.877 2°48.477 -999 0.086872 0.510094 -0.896096
2009-01-29 13:01:40 51°41.748 2°48.718 -999 0.086872 0.510123 -0.93092
2009-01-29 13:02:40 51°41.591 2°48.95 -999 0.086872 0.510153 -0.896096
2009-01-29 13:03:41 51°41.419 2°49.162 -999 0.086872 0.510182 -0.93092
2009-01-29 13:04:40 51°41.25 2°49.364 -999 0.086872 0.510212 -0.93092
2009-01-29 13:05:41 51°41.057 2°49.496 -999 0.086872 0.510232 -0.93092
2009-01-29 13:06:40 51°40.863 2°49.453 -999 0.086872 0.510281 -0.93092
2009-01-29 13:07:40 51°40.674 2°49.332 -999 0.086872 0.510301 -0.896096
2009-01-29 13:08:40 51°40.484 2°49.22 -999 0.086872 0.510341 -0.93092
2009-01-29 13:09:40 51°40.29 2°49.126 -999 0.086872 0.51036 -0.93092
2009-01-29 13:10:40 51°40.1 2°49.019 -999 0.086872 0.5104 -0.93092
2009-01-29 13:11:40 51°39.908 2°48.921 -999 0.086872 0.510449 -0.93092
2009-01-29 13:12:40 51°39.717 2°48.827 -999 0.086872 0.510469 -0.93092
2009-01-29 13:13:40 51°39.525 2°48.736 -999 0.086872 0.510519 -0.896096
2009-01-29 13:14:41 51°39.331 2°48.644 -999 0.086872 0.510558 -0.93092
2009-01-29 13:15:40 51°39.144 2°48.559 -999 0.086872 0.510588 -0.93092
2009-01-29 13:16:40 51°38.956 2°48.468 -999 0.086872 0.510618 -0.93092
2009-01-29 13:17:40 51°38.769 2°48.372 -999 0.086769 0.510039 -0.93092
2009-01-29 13:18:40 51°38.582 2°48.277 -999 0.086769 0.510078 -0.93092
2009-01-29 13:19:41 51°38.393 2°48.186 -999 0.086769 0.510118 -0.896096
2009-01-29 13:20:40 51°38.21 2°48.093 -999 0.086769 0.510147 -0.93092
2009-01-29 13:21:41 51°38.021 2°48.002 -999 0.086769 0.510197 -0.896096
2009-01-29 13:22:40 51°37.838 2°47.914 -999 0.086769 0.510236 -0.93092
2009-01-29 13:23:41 51°37.652 2°47.814 -999 0.086769 0.510276 -0.93092
2009-01-29 13:24:40 51°37.476 2°47.717 -999 0.086769 0.510326 -0.896096
2009-01-29 13:25:40 51°37.296 2°47.62 -999 0.086769 0.510365 -0.93092
2009-01-29 13:26:40 51°37.116 2°47.518 -999 0.086769 0.510405 -0.896096
2009-01-29 13:27:40 51°36.937 2°47.418 -999 0.086769 0.510454 -0.93092
2009-01-29 13:28:41 51°36.757 2°47.315 -999 0.086769 0.510504 -0.896096
2009-01-29 13:29:40 51°36.579 2°47.216 -999 0.086769 0.510553 -0.896096
2009-01-29 13:30:41 51°36.395 2°47.112 -999 0.086769 0.510593 -0.93092
2009-01-29 13:31:40 51°36.216 2°47.011 -999 0.086769 0.510633 -0.93092
2009-01-29 13:32:41 51°36.032 2°46.909 -999 0.086769 0.510672 -0.896096
2009-01-29 13:33:40 51°35.855 2°46.809 -999 0.086769 0.510712 -0.896096
2009-01-29 13:34:40 51°35.673 2°46.71 -999 0.086769 0.510752 -0.896096
2009-01-29 13:35:41 51°35.491 2°46.603 -999 0.086666 0.510162 -0.93092
2009-01-29 13:36:40 51°35.315 2°46.498 -999 0.086666 0.510202 -0.93092
2009-01-29 13:37:41 51°35.135 2°46.39 -999 0.086666 0.510251 -0.896096
2009-01-29 13:38:40 51°34.96 2°46.287 -999 0.086666 0.510291 -0.896096
2009-01-29 13:39:41 51°34.779 2°46.178 -999 0.086666 0.51034 -0.896096
2009-01-29 13:40:40 51°34.604 2°46.075 -999 0.086666 0.51038 -0.93092
2009-01-29 13:41:41 51°34.423 2°45.97 -999 0.086666 0.51043 -0.896096
2009-01-29 13:42:40 51°34.246 2°45.873 -999 0.086666 0.510469 -0.93092
2009-01-29 13:43:40 51°34.068 2°45.773 -999 0.086666 0.510519 -0.896096
2009-01-29 13:44:41 51°33.891 2°45.657 -999 0.086666 0.510559 -0.93092
2009-01-29 13:45:40 51°33.72 2°45.546 -999 0.086666 0.510598 -0.93092
2009-01-29 13:46:41 51°33.542 2°45.435 -999 0.086666 0.510648 -0.93092
2009-01-29 13:47:40 51°33.369 2°45.333 -999 0.086666 0.510698 -0.896096
2009-01-29 13:48:41 51°33.191 2°45.228 -999 0.086666 0.510738 -0.896096
2009-01-29 13:49:40 51°33.017 2°45.138 -999 0.086666 0.510777 -0.896096
2009-01-29 13:50:41 51°32.838 2°45.039 -999 0.086666 0.510827 -0.93092
2009-01-29 13:51:40 51°32.668 2°44.938 -999 0.086666 0.510867 -0.896096
2009-01-29 13:52:40 51°32.494 2°44.835 -999 0.086563 0.510286 -0.93092
2009-01-29 13:53:41 51°32.317 2°44.739 -999 0.086563 0.510346 -0.896096
2009-01-29 13:54:40 51°32.146 2°44.647 -999 0.086563 0.510395 -0.93092
2009-01-29 13:55:41 51°31.97 2°44.547 -999 0.086563 0.510445 -0.93092
2009-01-29 13:56:40 51°31.797 2°44.466 -999 0.086563 0.510495 -0.896096
2009-01-29 13:57:41 51°31.618 2°44.383 -999 0.086563 0.510544 -0.896096
2009-01-29 13:58:40 51°31.446 2°44.298 -999 0.086563 0.510594 -0.896096
2009-01-29 13:59:41 51°31.266 2°44.219 -999 0.086563 0.510644 -0.896096
2009-01-29 14:00:41 51°31.091 2°44.132 -999 0.086563 0.510684 -0.896096
2009-01-29 14:01:40 51°30.92 2°44.045 -999 0.086563 0.510733 -0.93092
2009-01-29 14:02:41 51°30.741 2°43.964 -999 0.086563 0.510803 -0.896096
2009-01-29 14:03:40 51°30.57 2°43.883 -999 0.086563 0.510843 -0.896096
2009-01-29 14:04:41 51°30.394 2°43.788 -999 0.08646 0.510261 -0.896096
2009-01-29 14:05:41 51°30.221 2°43.7 -999 0.08646 0.510321 -0.896096
2009-01-29 14:06:41 51°30.046 2°43.624 -999 0.08646 0.510361 -0.896096
2009-01-29 14:07:40 51°29.868 2°43.59 -999 0.08646 0.510421 -0.896096
2009-01-29 14:08:41 51°29.683 2°43.688 -999 0.08646 0.51048 -0.896096
2009-01-29 14:09:41 51°29.51 2°43.846 -999 0.08646 0.5105 -0.896096
2009-01-29 14:10:41 51°29.326 2°43.951 -999 0.08646 0.51054 -0.93092
2009-01-29 14:11:41 51°29.14 2°44.037 -999 0.08646 0.51061 -0.896096
2009-01-29 14:12:40 51°28.955 2°44.116 -999 0.08646 0.51066 -0.896096
2009-01-29 14:13:41 51°28.765 2°44.2 -999 0.08646 0.51071 -0.896096
2009-01-29 14:14:41 51°28.58 2°44.308 -999 0.08646 0.510769 -0.896096
2009-01-29 14:15:41 51°28.399 2°44.437 -999 0.08646 0.510819 -0.896096
2009-01-29 14:16:41 51°28.216 2°44.56 -999 0.08646 0.510879 -0.896096
2009-01-29 14:17:41 51°28.033 2°44.686 -999 0.086357 0.510297 -0.896096
2009-01-29 14:18:41 51°27.849 2°44.808 -999 0.086357 0.510347 -0.93092
2009-01-29 14:19:41 51°27.665 2°44.931 -999 0.086357 0.510407 -0.93092
2009-01-29 14:20:41 51°27.483 2°45.062 -999 0.086357 0.510456 -0.896096
2009-01-29 14:21:41 51°27.301 2°45.19 -999 0.086357 0.510496 -0.896096
2009-01-29 14:22:41 51°27.116 2°45.302 -999 0.086357 0.510546 -0.896096
2009-01-29 14:23:40 51°26.938 2°45.432 -999 0.086357 0.510596 -0.896096
2009-01-29 14:24:41 51°26.75 2°45.556 -999 0.086357 0.510646 -0.896096
2009-01-29 14:25:41 51°26.57 2°45.687 -999 0.086357 0.510686 -0.896096
2009-01-29 14:26:41 51°26.39 2°45.824 -999 0.086357 0.510736 -0.896096
2009-01-29 14:27:41 51°26.211 2°45.961 -999 0.086357 0.510786 -0.896096
2009-01-29 14:28:40 51°26.034 2°46.091 -999 0.086357 0.510826 -0.896096
2009-01-29 14:29:41 51°25.853 2°46.23 -999 0.086357 0.510886 -0.896096
2009-01-29 14:30:41 51°25.676 2°46.366 -999 0.086357 0.510926 -0.896096
2009-01-29 14:31:41 51°25.496 2°46.502 -999 0.086254 0.510343 -0.896096
2009-01-29 14:32:40 51°25.32 2°46.635 -999 0.086254 0.510383 -0.896096
2009-01-29 14:33:41 51°25.138 2°46.776 -999 0.086254 0.510433 -0.896096
2009-01-29 14:34:41 51°24.961 2°46.919 -999 0.086254 0.510473 -0.896096
2009-01-29 14:35:41 51°24.786 2°47.068 -999 0.086254 0.510522 -0.896096
2009-01-29 14:36:41 51°24.605 2°47.19 -999 0.086254 0.510562 -0.896096
2009-01-29 14:37:41 51°24.423 2°47.309 -999 0.086254 0.510612 -0.896096
2009-01-29 14:38:41 51°24.243 2°47.428 -999 0.086254 0.510662 -0.896096
2009-01-29 14:39:40 51°24.066 2°47.546 -999 0.086254 0.510702 -0.896096
2009-01-29 14:40:41 51°23.882 2°47.669 -999 0.086254 0.510742 -0.896096
2009-01-29 14:41:41 51°23.701 2°47.796 -999 0.086254 0.510792 -0.93092
2009-01-29 14:42:41 51°23.52 2°47.925 -999 0.086254 0.510842 -0.896096
2009-01-29 14:43:41 51°23.34 2°48.063 -999 0.086254 0.510882 -0.896096
2009-01-29 14:44:41 51°23.159 2°48.196 -999 0.086254 0.510923 -0.93092
2009-01-29 14:45:41 51°22.979 2°48.326 -999 0.086254 0.510973 -0.896096
2009-01-29 14:46:41 51°22.804 2°48.464 -999 0.086151 0.510389 -0.896096
2009-01-29 14:47:41 51°22.63 2°48.609 -999 0.086151 0.510429 -0.896096
2009-01-29 14:48:41 51°22.454 2°48.744 -999 0.086151 0.510469 -0.896096
2009-01-29 14:49:41 51°22.274 2°48.864 -999 0.086151 0.510519 -0.896096
2009-01-29 14:50:41 51°22.094 2°48.99 -999 0.086151 0.510559 -0.896096
2009-01-29 14:51:41 51°21.913 2°49.114 -999 0.086151 0.510609 -0.896096
2009-01-29 14:52:41 51°21.731 2°49.237 -999 0.086151 0.510649 -0.896096
2009-01-29 14:53:41 51°21.546 2°49.348 -999 0.086151 0.510689 -0.896096
2009-01-29 14:54:41 51°21.364 2°49.479 -999 0.086151 0.510749 -0.896096
2009-01-29 14:55:41 51°21.185 2°49.619 -999 0.086151 0.510789 -0.896096
2009-01-29 14:56:41 51°21.008 2°49.755 -999 0.086151 0.510829 -0.896096
2009-01-29 14:57:41 51°20.832 2°49.885 -999 0.086151 0.510879 -0.93092
2009-01-29 14:58:41 51°20.658 2°50.017 -999 0.086151 0.51092 -0.896096
2009-01-29 14:59:41 51°20.479 2°50.135 -999 0.086151 0.51096 -0.896096
2009-01-29 15:00:41 51°20.296 2°50.254 -999 0.086151 0.51101 -0.896096
2009-01-29 15:01:41 51°20.114 2°50.375 -999 0.086151 0.51105 -0.896096
2009-01-29 15:02:41 51°19.934 2°50.5 -999 0.086151 0.51109 -0.896096
2009-01-29 15:03:41 51°19.752 2°50.62 -999 0.086049 0.510506 -0.896096
2009-01-29 15:04:41 51°19.572 2°50.746 -999 0.086049 0.510556 -0.896096
2009-01-29 15:05:41 51°19.388 2°50.863 -999 0.086049 0.510596 -0.93092
2009-01-29 15:06:41 51°19.207 2°50.987 -999 0.086049 0.510626 -0.896096
2009-01-29 15:07:41 51°19.025 2°51.102 -999 0.086049 0.510666 -0.896096
2009-01-29 15:08:41 51°18.845 2°51.217 -999 0.086049 0.510696 -0.896096
2009-01-29 15:09:41 51°18.665 2°51.329 -999 0.086049 0.510726 -0.896096
2009-01-29 15:10:41 51°18.486 2°51.447 -999 0.086049 0.510766 -0.896096
2009-01-29 15:11:41 51°18.307 2°51.57 -999 0.086049 0.510796 -0.93092
2009-01-29 15:12:41 51°18.132 2°51.7 -999 0.086049 0.510827 -0.896096
2009-01-29 15:13:41 51°17.957 2°51.83 -999 0.086049 0.510837 -0.896096
2009-01-29 15:14:41 51°17.779 2°51.945 -999 0.086049 0.510847 -0.896096
2009-01-29 15:15:41 51°17.603 2°52.064 -999 0.086049 0.510867 -0.896096
2009-01-29 15:16:41 51°17.427 2°52.188 -999 0.086049 0.510887 -0.896096
2009-01-29 15:17:41 51°17.253 2°52.323 -999 0.086049 0.510897 -0.896096
2009-01-29 15:18:41 51°17.082 2°52.465 -999 0.086049 0.510917 -0.896096
2009-01-29 15:19:41 51°16.91 2°52.613 -999 0.086049 0.510937 -0.896096
2009-01-29 15:20:41 51°16.737 2°52.749 -999 0.086049 0.510947 -0.896096
2009-01-29 15:21:41 51°16.558 2°52.867 -999 0.086049 0.510977 -0.896096
2009-01-29 15:22:41 51°16.383 2°53.002 -999 0.086049 0.510997 -0.896096
2009-01-29 15:23:41 51°16.217 2°53.17 -999 0.086049 0.511007 -0.896096
2009-01-29 15:24:41 51°16.054 2°53.348 -999 0.086049 0.511037 -0.896096
2009-01-29 15:25:41 51°15.878 2°53.481 -999 0.086049 0.511058 -0.896096
2009-01-29 15:26:41 51°15.693 2°53.565 -999 0.086049 0.511088 -0.896096
2009-01-29 15:27:41 51°15.507 2°53.652 -999 0.086049 0.511118 -0.896096
2009-01-29 15:28:41 51°15.323 2°53.74 -999 0.086049 0.511158 -0.896096
2009-01-29 15:29:41 51°15.138 2°53.826 -999 0.086049 0.511188 -0.896096
2009-01-29 15:30:41 51°14.964 2°53.971 -999 0.086049 0.511218 -0.896096
2009-01-29 15:31:41 51°14.814 2°54.181 -999 0.086049 0.511248 -0.896096
2009-01-29 15:32:41 51°14.682 2°54.428 -999 0.086049 0.511289 -0.93092
2009-01-29 15:33:41 51°14.547 2°54.676 -999 0.086049 0.511329 -0.896096
2009-01-29 15:34:41 51°14.422 2°54.939 -999 0.085946 0.510723 -0.896096
2009-01-29 15:35:41 51°14.297 2°55.186 -999 0.085946 0.510774 -0.896096
2009-01-29 15:36:41 51°14.181 2°55.364 -999 0.085946 0.510794 -0.896096
2009-01-29 15:37:41 51°14.055 2°55.464 -999 0.085946 0.510844 -0.93092
2009-01-29 15:38:41 51°13.931 2°55.553 -999 0.085946 0.510884 -0.896096
2009-01-29 15:39:41 51°13.81 2°55.647 -999 0.085946 0.510914 -0.896096
2009-01-29 15:40:41 51°13.726 2°55.769 -999 0.085946 0.510945 -0.896096
2009-01-29 15:41:41 51°13.676 2°55.884 -999 0.085946 0.510975 -0.896096
2009-01-29 15:42:41 51°13.662 2°55.955 -999 0.085946 0.511015 -0.93092